[Iaude] MPEC Y49: 2020 DR2 [a=2.28,e=0.69,i=19.7,H=18.8]

mpec at marsden.cfa.harvard.edu mpec at marsden.cfa.harvard.edu
Wed Dec 22 09:05:53 EST 2021


M.P.E.C. 2021-Y49                             Issued 2021 December 22, 14:04 UT

     The Minor Planet Electronic Circulars contain information on unusual
         minor planets and routine data on comets.  They are published
    on behalf of Division F of the International Astronomical Union by the
          Minor Planet Center, Smithsonian Astrophysical Observatory,
                          Cambridge, MA 02138, U.S.A.

             Prepared using the Tamkin Foundation Computer Network

                              MPC at CFA.HARVARD.EDU
            URL https://www.minorplanetcenter.net/    ISSN 1523-6714

                                    2020 DR2                                    


                           Revision to MPEC 2020-D93                            

Additional Observations:
     K20D02R  C2003 04 01.41349813 37 58.44 +06 29 54.8          21.7 rXEY049645
     K20D02R  C2003 04 01.41432813 37 58.37 +06 29 55.4          21.7 iXEY049645
     K20D02R  C2003 04 01.41681613 37 58.15 +06 29 57.5          22.4 gXEY049645
     K20D02R /C2013 03 26.00149605 31 53.37 +10 43 13.5                XEY049W84
     K20D02R /C2013 03 26.00637405 31 55.29 +10 43 22.0                XEY049W84
     K20D02R UC2017 01 30.60117814 49 53.86 -05 23 45.6          23.2 rXEY049568
     K20D02R UC2017 01 30.60516614 49 53.99 -05 23 44.1          23.3 rXEY049568
     K20D02R UC2017 01 30.60916114 49 54.12 -05 23 43.1          23.4 rXEY049568
     K20D02R UC2017 01 30.64042214 49 55.16 -05 23 33.3          23.3 rXEY049568
     K20D02R UC2017 01 30.64441714 49 55.30 -05 23 32.0          23.4 rXEY049568
     K20D02R UC2017 01 30.64841214 49 55.44 -05 23 30.9          23.3 rXEY049568

Observer details:
568 Mauna Kea.  Observer R. Ibata.  Measurer K. Ly.  3.6-m Canada-France-
    Hawaii Telescope + CCD.
645 Apache Point-Sloan Digital Sky Survey.  Observer .  Measurer K. Ly.  2.5-m
    reflector + CCD.
W84 Cerro Tololo-DECam.  Observer A. Walker.  Measurer K. Ly.  4.0-m reflector
    + CCD.

First and last observations above in comparison with prediction:
Residuals in seconds of arc, reference and Delta-T
030401 645 84.9- 16.2-    170130 568  5.3-  1.0-    E2020-H95   +1259 days

Orbital elements:
2020 DR2                                            PHA, Earth MOID = 0.0092 AU
Epoch 2022 Jan. 21.0 TT = JDT 2459600.5                 Veres                   
M 215.01509              (2000.0)            P               Q                  
n   0.28585256     Peri.  252.52876     +0.46653045     -0.88213964             
a   2.2823102      Node   168.96476     +0.88392221     +0.46232313             
e   0.6908397      Incl.   19.73842     +0.03210708     +0.08992759             
P   3.45           H   18.80          G   0.15           U   0                  
Residuals in seconds of arc
030401 645  0.2-  0.2+    200222 W46  0.3+  0.2+    200303 J95  0.1-  0.1+
030401 645  0.2-  0.1+    200222 H21  0.2-  0.0     200303 J95  0.0   0.0
030401 645  0.4-  0.2+    200222 H21  0.1-  0.2+    200303 J95  0.0   0.3-
130326 W84  0.2+  0.0     200222 H21  0.0   0.1+    200303 Z80  0.4+  0.5+
130326 W84  0.4+  0.2-    200222 H21  0.1-  0.0     200303 Z80  0.2-  0.0
170130 568  0.1-  0.2-    200222 H21  0.3-  0.1+    200304 291  0.2-  0.0
170130 568  0.1-  0.1+    200222 H21  0.0   0.2-    200304 291  0.1+  0.2+
170130 568  0.2-  0.2-    200222 W46  0.2-  0.1+    200304 291  0.2+  0.2+
170130 568  0.2-  0.0     200222 H21  0.1-  0.1-    200304 T08  0.2-  0.0
170130 568  0.0   0.1+    200222 H21  0.1+  0.2-    200304 T08 (0.1-  1.0-)
170130 568  0.1+  0.1-    200222 H21  0.0   0.0     200304 T08  0.1+  0.5+
200220 703  0.0   0.1+    200222 H21  0.2-  0.2-    200304 T08  0.1+  0.2-
200220 703  0.4+  0.2-    200222 H36  0.1+  0.1+    200305 H21  0.3-  0.3+
200220 703  0.4-  0.2+    200222 H36  0.6+  0.6+    200305 H21  0.1-  0.0
200220 703  0.1+  0.1-    200222 H36  0.1+  0.1+    200305 H21  0.2-  0.1-
200220 I52  0.2-  0.1-    200222 H36  0.0   0.5+    200305 H21  0.2-  0.3+
200220 I52  0.3-  0.2-    200222 H36  0.5-  0.7+    200305 H21  0.2-  0.1-
200220 I52  0.1-  0.1-    200222 850  0.0   0.5+    200305 H21  0.1-  0.1-
200220 I52 (0.8-  1.6-)   200222 850  0.0   0.7+    200305 H21  0.0   0.2+
200220 L01  0.0   0.1+    200222 850  0.3+  0.2+    200305 H21  0.3+  0.1+
200220 L01  0.1+  0.2-    200222 850  0.2+  0.2-    200305 H21  0.2-  0.3+
200220 L01  0.0   0.3+    200222 K19  0.1-  0.2-    200305 H21  0.1+  0.2+
200220 L01  0.1-  0.1+    200222 K19  0.1-  0.4-    200305 I52  0.0   0.1-
200220 L01  0.1-  0.1+    200222 C95  0.1+  0.1-    200305 I52  0.1+  0.1+
200220 L01  0.2-  0.1-    200222 C95  0.0   0.1-    200305 I52  0.0   0.1-
200220 K19  0.0   0.2+    200222 K19  0.2-  0.5+    200305 I52  0.2+  0.4+
200220 160  0.2-  0.6+    200222 C95  0.1+  0.1-    200305 L34  0.2+  0.2+
200220 K19  0.1+  0.0     200222 C95  0.1-  0.1+    200305 L34  0.8+  0.3+
200220 160  0.1-  0.1+    200222 104  0.3-  0.1+    200305 L34 (1.5+  0.8+)
200220 160  0.2-  0.2+    200222 104  0.2-  0.0     200307 691  0.1+  0.1+
200220 160  0.6+  0.6+    200222 104  0.3-  0.0     200307 691  0.1-  0.1-
200220 160  0.2-  0.2+    200223 H21  0.1-  0.2+    200307 691  0.1-  0.0
200220 160  0.0   0.6+    200223 H21  0.1-  0.1+    200308 J95  0.1+  0.0
200220 160  0.1-  0.4-    200223 H21  0.2-  0.1+    200308 J95  0.1+  0.0
200220 K19  0.4+  0.7-    200223 H21  0.0   0.1+    200308 J95  0.2-  0.1+
200220 I93  0.2+  0.1-    200223 H21  0.1+  0.0     200309 T08  0.4-  0.3-
200220 I93  0.2-  0.2-    200223 H21  0.1+  0.1+    200309 T08  0.4+  0.0
200220 I93  0.3+  0.7-    200223 H21  0.2-  0.2+    200309 T08  0.0   0.0
200220 104  0.5-  0.5+    200223 H21  0.0   0.1+    200309 T08 (1.1-  0.4+)
200220 595  0.3-  0.3-    200223 H21  0.0   0.0     200310 F52  0.1-  0.2-
200220 104  0.4+  0.1-    200223 H21  0.1-  0.1+    200310 F52  0.1-  0.2-
200220 104  0.0   0.2-    200224 932  0.1-  0.1+    200312 T08  0.0   0.1-
200220 595  0.5-  0.4-    200224 932  0.1+  0.2+    200312 T08  0.3-  0.2-
200220 595  0.4+  0.1+    200224 932  0.1-  0.0     200312 T08  0.7+  0.4+
200220 204  0.1+  0.1+    200224 932  0.1+  0.2+    200312 T08  0.0   0.0
200220 204  0.0   0.2+    200224 807  0.2+  0.1-    200312 T08  0.3-  0.9+
200220 595  0.1-  0.0     200224 807  0.8-  0.3-    200312 T08  0.3-  0.1+
200220 Z84  0.1-  0.2+    200224 807  0.2-  0.1-    200312 T08  0.3+  0.5+
200220 204  0.2+  0.2+    200224 807  0.1+  0.2-    200312 T08  0.1+  0.6-
200220 Z84  0.3-  0.1+    200224 807  0.2-  0.0     200314 K87  0.1-  0.2+
200220 958  0.6+  0.8+    200224 T08  0.0   0.0     200314 K87  0.0   0.1-
200220 J95  0.2+  0.1+    200224 T08  0.1+  0.1-    200314 K87  0.1-  0.1-
200220 Z84  0.2-  0.1+    200224 T08  0.1+  0.5+    200315 I52  0.0   0.0
200220 J95  0.1-  0.1+    200224 T08  0.1+  0.4-    200315 I52  0.1-  0.4+
200220 Z84  0.1+  0.3+    200225 T08  0.1-  0.1-    200315 I52  0.2-  0.0
200220 J95  0.1+  0.0     200225 T08  0.0   0.0     200315 I52  0.0   0.0
200220 J95  0.0   0.3-    200225 T08  0.2+  0.2+    200315 Z99  0.3+  0.0
200220 958  0.1-  0.7-    200225 T08  0.0   0.2+    200315 Z99  0.3-  0.5-
200220 587  0.2+  0.2-    200225 J04  0.2-  0.2-    200315 Z99  0.3-  0.2-
200220 587  0.3+  0.1-    200225 J04  0.0   0.0     200315 Z99  0.3-  0.1-
200220 958  0.2-  0.1+    200226 691  0.1+  0.1+    200315 Z99  0.0   0.0
200220 587  0.0   0.1-    200226 691  0.1+  0.1+    200315 130  0.2-  0.1-
200220 X31  0.2+  0.0     200226 691  0.1+  0.1+    200315 130  0.4+  0.6+
200220 X31  0.1-  0.2+    200226 J04  0.0   0.1+    200315 130  0.1+  0.1+
200220 X31  0.3+  0.1-    200226 J04  0.1+  0.2+    200315 130  0.5+  0.2-
200221 I47  0.3+  0.2+    200226 J04  0.0   0.1+    200318 I52  0.2-  0.1-
200221 I47  0.1+  0.5-    200227 W88  0.3-  0.0     200318 I52  0.1-  0.0
200221 I47  0.2-  0.9-    200227 W88  0.1+  0.1-    200318 I52  0.0   0.0
200221 H21  0.0   0.1+    200227 W88  0.1+  0.0     200318 I52  0.1-  0.1-
200221 H21  0.0   0.0     200227 W88  0.2-  0.2+    200321 K87  0.2-  0.6-
200221 H21  0.1+  0.1-    200227 W88  0.0   0.0     200321 K87  0.0   0.3-
200221 H21  0.0   0.0     200227 J04  0.0   0.1-    200321 K87  0.2-  0.1-
200221 H21  0.1+  0.2+    200227 J04  0.1-  0.1+    200322 I52 (1.0+  0.1-)
200221 H21  0.1+  0.1+    200227 J04  0.0   0.0     200322 I52  0.3-  0.1-
200221 H21  0.1+  0.1+    200228 H45  1.4-  1.1-    200322 I52  0.7+  0.4+
200221 H21  0.0   0.1+    200228 H45  1.4-  0.7-    200322 I52 (1.4+  0.2-)
200221 H21  0.2+  0.1-    200228 H45  1.4-  1.2-    200323 K87  0.3-  0.8+
200221 H21  0.0   0.1+    200228 H45  1.3-  1.4-    200323 K87  0.1-  0.4-
200221 850  1.1+  0.8-    200228 H45  0.4-  0.8-    200323 K87  0.1-  1.1-
200221 734  0.2+  0.2+    200228 H45  1.2-  1.4-    200324 I52  0.0   0.2+
200221 734  0.0   0.4+    200228 J04  0.1+  0.1+    200324 I52  0.4-  0.4-
200221 734  0.0   0.0     200228 J04  0.0   0.0     200324 I52  0.2+  0.0
200221 734  0.5+  0.6+    200228 J04  0.0   0.1-    200324 I52  0.2-  0.3-
200221 734  0.1-  0.4-    200229 Z80  0.8-  0.8+    200325 G96  0.0   0.2+
200221 I52  0.1+  0.1-    200229 Z80  0.6-  0.6+    200325 G96  0.3+  0.2-
200221 I52  0.1-  0.4-    200301 Q62  0.1-  0.2+    200325 G96  0.1+  0.2-
200221 I52  0.0   0.0     200301 Q62  0.4+  0.1-    200325 G96  0.1+  0.2+
200221 I52  0.1-  0.0     200301 Q62  0.7-  0.2-    200331 A17  0.6+  0.2+
200221 850  3.5+  1.2-    200301 Q62  0.3+  0.0     200331 A17  0.5+  0.0
200221 850  0.4+  0.0     200302 807  0.1+  0.0     200331 A17  0.3-  0.2-
200221 850  0.3-  0.1+    200302 807  0.2-  0.1+    200410 I52  0.3+  0.0
200221 850  0.2+  0.1-    200302 807  0.1-  0.2+    200410 I52  0.2-  0.1-
200221 K96  0.1-  0.1-    200302 807  0.0   0.1+    200410 I52  0.1-  0.1-
200221 K96  0.0   0.0     200302 J95  0.1+  0.0     200410 I52  0.3+  0.0
200221 K96  0.1+  0.2-    200302 J95  0.2+  0.2+    200418 F51  0.0   0.1+
200221 K93  0.0   0.0     200302 J95  0.2-  0.0     200418 F51  0.0   0.1+
200221 K93  0.0   0.1-    200302 J95  0.2+  0.1+    200418 F51  0.1+  0.0
200221 K93  0.0   0.1-    200303 807  0.0   0.1+    200421 G96  0.3-  0.1-
200221 K93  0.0   0.0     200303 807  0.0   0.1+    200421 G96  0.0   0.1-
200221 X31  0.1+  0.0     200303 807  0.0   0.2-    200421 G96  0.7-  0.4+
200221 X31  0.2+  0.0     200303 U69  0.9+  0.4-    200421 G96  0.1+  0.0
200221 X31  0.2-  0.0     200303 U69  0.2+  0.0
200222 W46  0.1+  0.2+    200303 U69  0.3-  0.8+

Ephemeris:
2020 DR2                 a,e,i = 2.28, 0.69, 20                  q = 0.7056
Date    TT    R. A. (2000) Decl.     Delta      r    Elong.  Phase     V
2021 11 22    16 19 32.9 -05 52 41   4.7723  3.8322    15.9     4.1    25.5
...
2021 12 07    16 35 34.4 -06 27 08   4.7508  3.8177    16.7     4.3    25.5
...
2021 12 15    16 44 10.6 -06 39 28   4.7201  3.8087    19.8     5.0    25.5
...
2021 12 21    16 50 36.8 -06 45 49   4.6886  3.8014    22.9     5.8    25.5
2021 12 22    16 51 41.0 -06 46 38   4.6826  3.8001    23.4     5.9    25.5
2021 12 23    16 52 45.1 -06 47 23   4.6765  3.7988    24.0     6.0    25.5
...
2021 12 29    16 59 08.1 -06 50 21   4.6353  3.7908    27.5     6.9    25.5
...
2022 01 06    17 07 31.9 -06 50 13   4.5696  3.7793    32.7     8.1    25.6
...
2022 01 21    17 22 43.1 -06 37 07   4.4149  3.7554    43.0    10.3    25.6

A. U. Tomatic                (C) Copyright 2021 MPC           M.P.E.C. 2021-Y49




More information about the Iaude mailing list